International Skating Union - Official Site

Essent ISU World Cup Moscow
January 28-30, 2011

Draw | Lap Times | Index | World Cup

Referee: Hannu  KOIVU  (FIN)
Starter: Hartmut  WEIRAUCH  (GER)
StartTime: EndTime: Air Temp: Ice Temp: Humidity:
14:58 16:34 13.6℃ -5.9℃ 36%
Result 5000m Men Division A
Rankings as of Jan 30 2011 1:08PM
Rank: No.: Name: Nation: Time: Behind: Points:
1 55 Bob  de JONG NED NED 6:19.43200m - 19.49 - (19.4)
600m - 49.53 - (30.0)
1000m - 1:20.11 - (30.5)
1400m - 1:50.38 - (30.2)
1800m - 2:20.35 - (29.9)
2200m - 2:50.45 - (30.1)
2600m - 3:20.21 - (29.7)
3000m - 3:50.05 - (29.8)
3400m - 4:19.88 - (29.8)
3800m - 4:49.70 - (29.8)
4200m - 5:19.55 - (29.8)
4600m - 5:49.66 - (30.1)
5000m - 6:19.43 - (29.7)
100
2 92 Ivan  SKOBREV RUS RUS 6:21.16200m - 19.09 - (19.0)
600m - 48.89 - (29.8)
1000m - 1:19.45 - (30.5)
1400m - 1:50.10 - (30.6)
1800m - 2:20.66 - (30.5)
2200m - 2:50.79 - (30.1)
2600m - 3:20.84 - (30.0)
3000m - 3:50.94 - (30.1)
3400m - 4:21.25 - (30.3)
3800m - 4:51.26 - (30.0)
4200m - 5:21.18 - (29.9)
4600m - 5:51.15 - (29.9)
5000m - 6:21.16 - (30.0)
1.73 80
3 67 Håvard  BØKKO NOR NOR 6:22.79200m - 18.39 - (18.3)
600m - 48.09 - (29.7)
1000m - 1:18.20 - (30.1)
1400m - 1:48.72 - (30.5)
1800m - 2:18.79 - (30.0)
2200m - 2:49.17 - (30.3)
2600m - 3:19.46 - (30.2)
3000m - 3:50.01 - (30.5)
3400m - 4:20.59 - (30.5)
3800m - 4:51.19 - (30.6)
4200m - 5:21.84 - (30.6)
4600m - 5:52.54 - (30.7)
5000m - 6:22.79 - (30.2)
3.36 70
4 51 Jan  BLOKHUIJSEN NED NED 6:22.93200m - 18.60 - (18.6)
600m - 48.29 - (29.6)
1000m - 1:18.38 - (30.0)
1400m - 1:48.43 - (30.0)
1800m - 2:18.31 - (29.8)
2200m - 2:48.30 - (29.9)
2600m - 3:18.40 - (30.1)
3000m - 3:48.61 - (30.2)
3400m - 4:19.10 - (30.4)
3800m - 4:49.70 - (30.6)
4200m - 5:20.60 - (30.9)
4600m - 5:51.50 - (30.9)
5000m - 6:22.93 - (31.4)
3.50 60
5 54 Wouter  OLDE HEUVEL NED NED 6:24.80200m - 19.19 - (19.1)
600m - 49.06 - (29.8)
1000m - 1:19.21 - (30.1)
1400m - 1:49.17 - (29.9)
1800m - 2:19.30 - (30.1)
2200m - 2:49.54 - (30.2)
2600m - 3:19.66 - (30.1)
3000m - 3:49.89 - (30.2)
3400m - 4:20.46 - (30.5)
3800m - 4:51.36 - (30.9)
4200m - 5:22.52 - (31.1)
4600m - 5:53.58 - (31.0)
5000m - 6:24.80 - (31.2)
5.37 50
6 65 Bob  de VRIES NED NED 6:25.99200m - 19.58 - (19.5)
600m - 49.14 - (29.5)
1000m - 1:19.02 - (29.8)
1400m - 1:49.19 - (30.1)
1800m - 2:19.41 - (30.2)
2200m - 2:49.84 - (30.4)
2600m - 3:20.61 - (30.7)
3000m - 3:51.57 - (30.9)
3400m - 4:22.67 - (31.1)
3800m - 4:53.55 - (30.8)
4200m - 5:24.55 - (31.0)
4600m - 5:55.34 - (30.7)
5000m - 6:25.99 - (30.6)
6.56 45
7 80 Jan  SZYMANSKI POL POL 6:27.85200m - 19.08 - (19.0)
600m - 48.67 - (29.5)
1000m - 1:19.25 - (30.5)
1400m - 1:49.68 - (30.4)
1800m - 2:19.83 - (30.1)
2200m - 2:50.09 - (30.2)
2600m - 3:20.76 - (30.6)
3000m - 3:51.52 - (30.7)
3400m - 4:22.24 - (30.7)
3800m - 4:52.96 - (30.7)
4200m - 5:24.19 - (31.2)
4600m - 5:55.91 - (31.7)
5000m - 6:27.85 - (31.9)
8.42 40
8 43 Norimasa  ZAIKE JPN JPN 6:33.55200m - 19.38 - (19.3)
600m - 49.62 - (30.2)
1000m - 1:19.31 - (29.6)
1400m - 1:49.36 - (30.0)
1800m - 2:19.60 - (30.2)
2200m - 2:50.59 - (30.9)
2600m - 3:21.27 - (30.6)
3000m - 3:52.28 - (31.0)
3400m - 4:23.81 - (31.5)
3800m - 4:55.88 - (32.0)
4200m - 5:28.06 - (32.1)
4600m - 6:00.66 - (32.6)
5000m - 6:33.55 - (32.8)
14.12 36
9 69 Øystein  GRØDUM NOR NOR 6:33.88200m - 19.67 - (19.6)
600m - 49.88 - (30.2)
1000m - 1:20.57 - (30.6)
1400m - 1:51.79 - (31.2)
1800m - 2:22.85 - (31.0)
2200m - 2:54.03 - (31.1)
2600m - 3:24.97 - (30.9)
3000m - 3:56.67 - (31.7)
3400m - 4:28.19 - (31.5)
3800m - 4:59.77 - (31.5)
4200m - 5:31.14 - (31.3)
4600m - 6:02.50 - (31.3)
5000m - 6:33.88 - (31.3)
14.45 32
10 73 Sverre  LUNDE PEDERSEN NOR NOR 6:34.12200m - 19.52 - (19.5)
600m - 50.18 - (30.6)
1000m - 1:21.32 - (31.1)
1400m - 1:51.97 - (30.6)
1800m - 2:22.93 - (30.9)
2200m - 2:53.91 - (30.9)
2600m - 3:25.30 - (31.3)
3000m - 3:56.52 - (31.2)
3400m - 4:28.07 - (31.5)
3800m - 4:59.53 - (31.4)
4200m - 5:31.06 - (31.5)
4600m - 6:02.29 - (31.2)
5000m - 6:34.12 - (31.8)
14.69 28
11 35 Marco  WEBER GER GER 6:34.66200m - 19.18 - (19.1)
600m - 49.71 - (30.5)
1000m - 1:20.25 - (30.5)
1400m - 1:50.66 - (30.4)
1800m - 2:21.17 - (30.5)
2200m - 2:52.10 - (30.9)
2600m - 3:23.61 - (31.5)
3000m - 3:55.37 - (31.7)
3400m - 4:26.98 - (31.6)
3800m - 4:59.04 - (32.0)
4200m - 5:31.12 - (32.0)
4600m - 6:03.19 - (32.0)
5000m - 6:34.66 - (31.4)
15.23 24
12 27 Patrick  BECKERT GER GER 6:35.25200m - 19.42 - (19.4)
600m - 49.62 - (30.2)
1000m - 1:20.26 - (30.6)
1400m - 1:51.26 - (31.0)
1800m - 2:22.11 - (30.8)
2200m - 2:53.07 - (30.9)
2600m - 3:24.10 - (31.0)
3000m - 3:55.58 - (31.4)
3400m - 4:27.28 - (31.7)
3800m - 4:59.17 - (31.8)
4200m - 5:31.33 - (32.1)
4600m - 6:03.45 - (32.1)
5000m - 6:35.25 - (31.8)
15.82 21
13 70 Fredrik  VAN DER HORST NOR NOR 6:37.79200m - 19.14 - (19.1)
600m - 49.63 - (30.4)
1000m - 1:20.40 - (30.7)
1400m - 1:51.53 - (31.1)
1800m - 2:22.57 - (31.0)
2200m - 2:54.21 - (31.6)
2600m - 3:25.65 - (31.4)
3000m - 3:57.69 - (32.0)
3400m - 4:29.40 - (31.7)
3800m - 5:01.13 - (31.7)
4200m - 5:33.09 - (31.9)
4600m - 6:05.26 - (32.1)
5000m - 6:37.79 - (32.5)
18.36 18
14 95 Ryan  BEDFORD USA USA 6:38.95200m - 19.61 - (19.6)
600m - 49.30 - (29.6)
1000m - 1:20.40 - (31.1)
1400m - 1:51.58 - (31.1)
1800m - 2:22.99 - (31.4)
2200m - 2:54.03 - (31.0)
2600m - 3:25.51 - (31.4)
3000m - 3:57.01 - (31.5)
3400m - 4:28.71 - (31.7)
3800m - 5:00.83 - (32.1)
4200m - 5:33.28 - (32.4)
4600m - 6:06.07 - (32.7)
5000m - 6:38.95 - (32.8)
19.52 16
15 11 Lucas  MAKOWSKY CAN CAN 6:40.37200m - 19.13 - (19.1)
600m - 49.46 - (30.3)
1000m - 1:20.23 - (30.7)
1400m - 1:50.88 - (30.6)
1800m - 2:21.70 - (30.8)
2200m - 2:52.81 - (31.1)
2600m - 3:24.27 - (31.4)
3000m - 3:55.71 - (31.4)
3400m - 4:27.51 - (31.8)
3800m - 4:59.85 - (32.3)
4200m - 5:32.66 - (32.8)
4600m - 6:06.44 - (33.7)
5000m - 6:40.37 - (33.9)
20.94 14
16 29 Moritz  GEISREITER GER GER 6:40.64200m - 19.29 - (19.2)
600m - 48.38 - (29.0)
1000m - 1:17.96 - (29.5)
1400m - 1:47.83 - (29.8)
1800m - 2:18.45 - (30.6)
2200m - 2:49.53 - (31.0)
2600m - 3:21.00 - (31.4)
3000m - 3:52.81 - (31.8)
3400m - 4:25.10 - (32.2)
3800m - 4:57.72 - (32.6)
4200m - 5:31.44 - (33.7)
4600m - 6:05.98 - (34.5)
5000m - 6:40.64 - (34.6)
21.21 12
17 91 Aleksandr  RUMYANTSEV RUS RUS 6:40.82200m - 19.19 - (19.1)
600m - 49.40 - (30.2)
1000m - 1:19.97 - (30.5)
1400m - 1:51.29 - (31.3)
1800m - 2:22.18 - (30.8)
2200m - 2:53.25 - (31.0)
2600m - 3:24.44 - (31.1)
3000m - 3:55.66 - (31.2)
3400m - 4:27.15 - (31.4)
3800m - 4:59.34 - (32.1)
4200m - 5:32.20 - (32.8)
4600m - 6:05.89 - (33.6)
5000m - 6:40.82 - (34.9)
21.39 10
18 16 Justin  WARSYLEWICZ CAN CAN 6:49.32200m - 18.73 - (18.7)
600m - 49.36 - (30.6)
1000m - 1:21.10 - (31.7)
1400m - 1:52.67 - (31.5)
1800m - 2:24.03 - (31.3)
2200m - 2:55.61 - (31.5)
2600m - 3:27.64 - (32.0)
3000m - 4:00.16 - (32.5)
3400m - 4:33.16 - (33.0)
3800m - 5:06.51 - (33.3)
4200m - 5:40.54 - (34.0)
4600m - 6:14.93 - (34.3)
5000m - 6:49.32 - (34.4)
29.89 8
19 68 Henrik  CHRISTIANSEN NOR NOR DQ200m - 19.76 - (19.7)
600m - 49.94 - (30.1)
1000m - 1:20.94 - (31.0)
1400m - 1:51.95 - (31.0)
1800m - 2:22.80 - (30.8)
2200m - 2:53.71 - (30.9)
2600m - 3:25.67 - (31.9)
3000m - 4:10.74 - (45.0)
3400m - 4:43.28 - (32.5)
3800m - 5:15.94 - (32.6)
4200m - 5:48.65 - (32.7)
4600m - 6:21.06 - (32.4)
5000m - 6:52.90 - (31.8)
0
20 49 Jorrit  BERGSMA NED NED DNS 0